Simultaneous Nadir Overpasses (SNOs) Predictions

Prediction of SNOs between AQUA and METOP-B Satellite Orbit:

Table of predicted SNOs for the next 14.0 days since TLE Epoch: 7/10/2020
Index Date (AQUA) Time (AQUA) Lat,Lon (AQUA) SZA (AQUA ) Date (METOP-B) Time (METOP-B) Lat,Lon (METOP-B) SZA (METOP-B ) Distance(km) Time Diff (sec)
1 07/12/2020 01:30:23 73.82, 151.69 51.96 07/12/2020 01:29:42 73.83, 151.78 51.97 3.31 41
2 07/12/2020 02:19:50 -73.89, -40.82 127.97 07/12/2020 02:20:23 -73.88, -40.79 127.98 1.37 33
3 07/14/2020 21:04:39 73.83,-141.91 52.39 07/14/2020 21:04:03 73.84,-141.79 52.40 3.53 36
4 07/14/2020 21:54:06 -73.90, 25.59 127.53 07/14/2020 21:54:44 -73.88, 25.64 127.55 2.16 38
5 07/17/2020 16:38:54 73.80, -75.39 52.83 07/17/2020 16:38:25 73.79, -75.49 52.84 3.09 29
6 07/17/2020 17:28:21 -73.86, 92.10 127.10 07/17/2020 17:29:05 -73.89, 92.06 127.08 3.15 44
7 07/20/2020 12:13:09 73.82, -9.01 53.37 07/20/2020 12:12:45 73.80, -9.07 53.36 3.19 24
8 07/20/2020 13:02:36 -73.89, 158.49 126.55 07/20/2020 13:03:25 -73.89, 158.48 126.55 0.85 49
9 07/23/2020 06:57:46 -73.24,-108.98 126.70 07/23/2020 06:56:39 -73.17,-111.43 126.65 79.25 67
10 07/23/2020 07:47:25 73.85, 57.37 53.96 07/23/2020 07:47:05 73.85, 57.46 53.97 2.74 20
11 07/23/2020 08:36:52 -73.91,-135.13 125.96 07/23/2020 08:37:46 -73.89,-135.11 125.99 2.21 54
